Location: Ar Ranvel
(48.3000°N, 4.8833°W)
Time: 19:55:49
(UTC+00:00)

N. Korean satellite - Visible Passes

Search period start: 26 September 2021 00:00
Search period end: 06 October 2021 00:00
Orbit: 449 x 498 km, 97.3° (Epoch: 26 September)

Date Brightness Start Highest point End Pass type
(mag) Time Alt. Az. Time Alt. Az. Time Alt. Az.
26 Sep 9.8 04:39:06 10° NE 04:41:09 14° E 04:43:11 10° SE visible
28 Sep 8.3 05:15:38 10° NNE 05:18:59 37° E 05:22:21 10° SSE visible
29 Sep 9.6 04:48:25 10° NE 04:51:00 19° E 04:53:36 10° SE visible
01 Oct 7.7 05:25:13 10° NNE 05:28:43 49° E 05:32:15 10° S visible
02 Oct 9.2 04:57:47 10° NE 05:00:46 24° E 05:03:44 10° SSE visible
03 Oct 10.0 04:31:10 10° ENE 04:32:40 12° E 04:34:08 10° ESE visible
04 Oct 7.1 05:34:45 10° NNE 05:38:22 65° E 05:41:59 10° S visible
05 Oct 8.7 05:07:08 10° NNE 05:10:23 30° E 05:13:39 10° SSE visible
